Time,TemperatureF,DewpointF,PressureIn,WindDirection,WindDirectionDegrees,WindSpeedMPH,WindSpeedGustMPH,Humidity,HourlyPrecipIn,Conditions,Clouds,dailyrainin,SoftwareType,DateUTC
2013-04-23 00:02:00,58.0,54.0,29.98,SSW,193,0.0,0.0,87,0.00,,,0.01,,2013-04-23 05:02:00,
2013-04-23 00:12:00,58.0,54.0,29.98,SSW,193,0.0,0.0,87,0.00,,,0.01,,2013-04-23 05:12:00,
2013-04-23 00:22:00,57.0,53.0,29.98,SSW,193,0.0,0.0,88,0.00,,,0.01,,2013-04-23 05:22:00,
2013-04-23 00:32:00,57.0,53.0,29.98,SSW,193,0.0,0.0,87,0.00,,,0.01,,2013-04-23 05:32:00,
2013-04-23 00:42:00,57.0,53.0,29.98,SSW,193,0.0,0.0,87,0.00,,,0.01,,2013-04-23 05:42:00,
2013-04-23 00:52:00,57.0,53.0,29.98,SSW,193,0.0,0.0,87,0.00,,,0.01,,2013-04-23 05:52:00,
2013-04-23 01:01:00,56.0,52.0,29.98,SSW,193,0.0,0.0,87,0.00,,,0.01,,2013-04-23 06:01:00,
2013-04-23 01:12:00,56.0,52.0,29.98,SSW,193,0.0,0.0,87,0.00,,,0.01,,2013-04-23 06:12:00,
2013-04-23 01:21:00,56.0,52.0,29.98,SSW,193,0.0,0.0,87,0.00,,,0.01,,2013-04-23 06:21:00,
2013-04-23 01:33:00,56.0,52.0,29.98,SSW,193,0.0,0.0,87,0.00,,,0.01,,2013-04-23 06:33:00,
2013-04-23 01:42:00,56.0,52.0,29.98,SSW,193,0.0,0.0,87,0.00,,,0.01,,2013-04-23 06:42:00,
2013-04-23 01:52:00,56.0,52.0,29.98,SSW,193,0.0,0.0,87,0.00,,,0.01,,2013-04-23 06:52:00,
2013-04-23 02:02:00,56.0,52.0,29.98,SSW,193,0.0,0.0,86,0.00,,,0.01,,2013-04-23 07:02:00,
2013-04-23 02:11:00,56.0,52.0,29.98,SSW,193,0.0,0.0,86,0.00,,,0.01,,2013-04-23 07:11:00,
2013-04-23 02:21:00,57.0,53.0,29.97,SSW,193,0.0,0.0,85,0.00,,,0.01,,2013-04-23 07:21:00,
2013-04-23 02:32:00,57.0,53.0,29.97,SSW,193,0.0,0.0,85,0.00,,,0.01,,2013-04-23 07:32:00,
2013-04-23 02:42:00,57.0,53.0,29.97,SSW,193,0.0,0.0,85,0.00,,,0.01,,2013-04-23 07:42:00,
2013-04-23 02:52:00,58.0,54.0,29.96,SSW,193,0.0,0.0,85,0.00,,,0.01,,2013-04-23 07:52:00,
2013-04-23 03:02:00,58.0,54.0,29.97,SSW,193,0.0,0.0,85,0.00,,,0.01,,2013-04-23 08:02:00,
2013-04-23 03:11:00,58.0,54.0,29.97,SSW,193,0.0,0.0,85,0.00,,,0.01,,2013-04-23 08:11:00,
2013-04-23 03:21:00,59.0,54.0,29.96,SSW,193,0.0,0.0,85,0.00,,,0.01,,2013-04-23 08:21:00,
2013-04-23 03:31:00,59.0,54.0,29.96,SSW,193,0.0,0.0,85,0.00,,,0.01,,2013-04-23 08:31:00,
2013-04-23 03:42:00,59.0,54.0,29.96,SSW,193,0.0,0.0,85,0.00,,,0.01,,2013-04-23 08:42:00,
2013-04-23 03:52:00,59.0,54.0,29.96,SSW,193,0.0,0.0,85,0.00,,,0.01,,2013-04-23 08:52:00,
2013-04-23 04:01:00,58.0,54.0,29.96,SSW,193,0.0,0.0,86,0.00,,,0.01,,2013-04-23 09:01:00,
2013-04-23 04:11:00,58.0,54.0,29.96,SSW,193,0.0,0.0,86,0.00,,,0.01,,2013-04-23 09:11:00,
2013-04-23 04:21:00,58.0,54.0,29.96,SSW,193,0.0,0.0,85,0.00,,,0.01,,2013-04-23 09:21:00,
2013-04-23 04:33:00,59.0,54.0,29.95,SSW,193,0.0,0.0,85,0.00,,,0.01,,2013-04-23 09:33:00,
2013-04-23 04:43:00,59.0,54.0,29.95,SSW,193,0.0,0.0,85,0.00,,,0.01,,2013-04-23 09:43:00,
2013-04-23 04:53:00,59.0,54.0,29.96,SSW,193,0.0,0.0,85,0.00,,,0.01,,2013-04-23 09:53:00,
2013-04-23 05:02:00,59.0,54.0,29.96,SSW,193,0.0,0.0,85,0.00,,,0.01,,2013-04-23 10:02:00,
2013-04-23 05:13:00,59.0,54.0,29.96,SSW,193,0.0,0.0,85,0.00,,,0.01,,2013-04-23 10:13:00,
2013-04-23 05:22:00,60.0,55.0,29.96,SSW,193,0.0,0.0,85,0.00,,,0.01,,2013-04-23 10:22:00,
2013-04-23 05:33:00,60.0,55.0,29.95,SSW,193,0.0,0.0,85,0.00,,,0.01,,2013-04-23 10:33:00,
2013-04-23 05:42:00,60.0,55.0,29.95,SSW,193,0.0,0.0,85,0.00,,,0.01,,2013-04-23 10:42:00,
2013-04-23 05:52:00,60.0,55.0,29.95,SSW,193,0.0,0.0,85,0.00,,,0.01,,2013-04-23 10:52:00,
2013-04-23 06:02:00,60.0,55.0,29.95,SSW,193,0.0,0.0,85,0.00,,,0.01,,2013-04-23 11:02:00,
2013-04-23 06:12:00,60.0,55.0,29.95,SSW,193,0.0,0.0,85,0.00,,,0.01,,2013-04-23 11:12:00,
2013-04-23 06:21:00,60.0,55.0,29.96,SSW,193,0.0,0.0,85,0.00,,,0.01,,2013-04-23 11:21:00,
2013-04-23 06:32:00,61.0,56.0,29.96,SSW,193,0.0,0.0,85,0.00,,,0.01,,2013-04-23 11:32:00,
2013-04-23 06:42:00,61.0,56.0,29.96,SSW,193,0.0,0.0,85,0.00,,,0.01,,2013-04-23 11:42:00,
2013-04-23 06:53:00,62.0,57.0,29.97,SSW,193,0.0,0.0,85,0.00,,,0.01,,2013-04-23 11:53:00,
2013-04-23 07:02:00,62.0,57.0,29.97,SSW,193,0.0,0.0,85,0.00,,,0.01,,2013-04-23 12:02:00,
2013-04-23 07:12:00,62.0,57.0,29.97,SSW,193,0.0,0.0,85,0.00,,,0.01,,2013-04-23 12:12:00,
2013-04-23 07:22:00,62.0,57.0,29.97,SSW,193,0.0,0.0,85,0.00,,,0.01,,2013-04-23 12:22:00,
2013-04-23 07:32:00,62.0,57.0,29.97,SSW,193,0.0,0.0,85,0.00,,,0.01,,2013-04-23 12:32:00,
2013-04-23 07:41:00,62.0,57.0,29.97,SSW,193,0.0,0.0,85,0.00,,,0.01,,2013-04-23 12:41:00,
2013-04-23 07:52:00,63.0,59.0,29.97,SSW,193,0.0,0.0,87,0.00,,,0.01,,2013-04-23 12:52:00,
2013-04-23 08:01:00,67.0,64.0,29.98,SSW,193,0.0,1.0,89,0.00,,,0.01,,2013-04-23 13:01:00,
2013-04-23 08:11:00,67.0,64.0,29.98,SSW,193,0.0,1.0,89,0.00,,,0.01,,2013-04-23 13:11:00,
2013-04-23 08:21:00,69.0,66.0,29.98,SSW,193,0.0,2.0,89,0.00,,,0.00,,2013-04-23 13:21:00,
2013-04-23 08:32:00,70.0,66.0,29.98,SSW,193,0.0,3.0,88,0.00,,,0.00,,2013-04-23 13:32:00,
2013-04-23 08:41:00,70.0,66.0,29.98,SSW,193,0.0,3.0,88,0.00,,,0.00,,2013-04-23 13:41:00,
2013-04-23 08:52:00,70.0,65.0,29.98,South,175,1.0,4.0,85,0.00,,,0.00,,2013-04-23 13:52:00,
2013-04-23 09:01:00,71.0,66.0,29.99,SSE,165,3.0,7.0,84,0.00,,,0.00,,2013-04-23 14:01:00,
2013-04-23 09:11:00,71.0,66.0,29.99,SSE,165,3.0,7.0,84,0.00,,,0.00,,2013-04-23 14:11:00,
2013-04-23 09:22:00,72.0,67.0,29.99,SSE,155,4.0,7.0,83,0.00,,,0.00,,2013-04-23 14:22:00,
2013-04-23 09:32:00,73.0,68.0,29.99,SSE,158,4.0,7.0,84,0.00,,,0.00,,2013-04-23 14:32:00,
2013-04-23 09:42:00,73.0,68.0,29.99,SSE,158,4.0,7.0,84,0.00,,,0.00,,2013-04-23 14:42:00,
2013-04-23 09:52:00,76.0,72.0,29.99,SSE,161,9.0,18.0,87,0.00,,,0.00,,2013-04-23 14:52:00,
2013-04-23 10:01:00,76.0,72.0,29.99,SSE,161,9.0,18.0,87,0.00,,,0.00,,2013-04-23 15:01:00,
2013-04-23 10:12:00,75.0,71.0,30.00,SSE,157,7.0,18.0,86,0.00,,,0.00,,2013-04-23 15:12:00,
2013-04-23 10:21:00,76.0,72.0,29.99,SSE,168,6.0,12.0,86,0.00,,,0.00,,2013-04-23 15:21:00,
2013-04-23 10:32:00,77.0,71.0,30.00,South,169,7.0,13.0,83,0.00,,,0.00,,2013-04-23 15:32:00,
2013-04-23 10:42:00,77.0,71.0,30.00,South,169,7.0,13.0,83,0.00,,,0.00,,2013-04-23 15:42:00,
2013-04-23 10:53:00,79.0,72.0,30.00,South,181,12.0,20.0,80,0.00,,,0.00,,2013-04-23 15:53:00,
2013-04-23 11:03:00,79.0,72.0,30.00,SSW,192,8.0,16.0,79,0.00,,,0.00,,2013-04-23 16:03:00,
2013-04-23 11:12:00,79.0,72.0,30.00,SSW,192,8.0,16.0,79,0.00,,,0.00,,2013-04-23 16:12:00,
2013-04-23 11:23:00,79.0,72.0,30.01,South,179,8.0,12.0,80,0.00,,,0.00,,2013-04-23 16:23:00,
2013-04-23 11:34:00,78.0,72.0,30.01,South,171,9.0,15.0,82,0.00,,,0.00,,2013-04-23 16:34:00,
2013-04-23 11:43:00,78.0,72.0,30.01,South,171,9.0,15.0,82,0.00,,,0.00,,2013-04-23 16:43:00,
2013-04-23 11:53:00,79.0,73.0,30.00,South,178,7.0,12.0,82,0.00,,,0.00,,2013-04-23 16:53:00,
2013-04-23 12:02:00,80.0,73.0,30.00,SW,217,6.0,14.0,79,0.00,,,0.00,,2013-04-23 17:02:00,
2013-04-23 12:11:00,80.0,73.0,30.00,SW,217,6.0,14.0,79,0.00,,,0.00,,2013-04-23 17:11:00,
2013-04-23 12:22:00,80.0,72.0,30.00,South,191,10.0,14.0,77,0.00,,,0.00,,2013-04-23 17:22:00,
2013-04-23 12:32:00,81.0,72.0,29.99,South,177,8.0,18.0,75,0.00,,,0.00,,2013-04-23 17:32:00,
2013-04-23 12:42:00,81.0,72.0,29.99,South,177,8.0,18.0,75,0.00,,,0.00,,2013-04-23 17:42:00,
2013-04-23 12:53:00,82.0,73.0,29.98,South,172,9.0,14.0,75,0.00,,,0.00,,2013-04-23 17:53:00,
2013-04-23 13:02:00,82.0,72.0,29.98,South,180,11.0,20.0,72,0.00,,,0.00,,2013-04-23 18:02:00,
2013-04-23 13:12:00,82.0,72.0,29.98,South,180,11.0,20.0,72,0.00,,,0.00,,2013-04-23 18:12:00,
2013-04-23 13:22:00,82.0,71.0,29.98,South,169,9.0,20.0,70,0.00,,,0.00,,2013-04-23 18:22:00,
2013-04-23 13:32:00,81.0,70.0,29.98,South,183,8.0,17.0,69,0.00,,,0.00,,2013-04-23 18:32:00,
2013-04-23 13:42:00,81.0,70.0,29.98,South,183,8.0,17.0,69,0.00,,,0.00,,2013-04-23 18:42:00,
2013-04-23 13:52:00,83.0,71.0,29.97,South,169,8.0,17.0,67,0.00,,,0.00,,2013-04-23 18:52:00,
2013-04-23 14:02:00,82.0,71.0,29.97,South,180,7.0,16.0,69,0.00,,,0.00,,2013-04-23 19:02:00,
2013-04-23 14:11:00,82.0,71.0,29.97,South,180,7.0,16.0,69,0.00,,,0.00,,2013-04-23 19:11:00,
2013-04-23 14:22:00,82.0,70.0,29.97,South,180,10.0,15.0,67,0.00,,,0.00,,2013-04-23 19:22:00,
2013-04-23 14:32:00,83.0,72.0,29.96,South,176,7.0,16.0,69,0.00,,,0.00,,2013-04-23 19:32:00,
2013-04-23 14:42:00,83.0,72.0,29.96,South,176,7.0,16.0,69,0.00,,,0.00,,2013-04-23 19:42:00,
2013-04-23 14:52:00,82.0,70.0,29.95,South,183,6.0,13.0,68,0.00,,,0.00,,2013-04-23 19:52:00,
2013-04-23 15:01:00,83.0,70.0,29.95,SSW,208,7.0,13.0,64,0.00,,,0.00,,2013-04-23 20:01:00,
2013-04-23 15:11:00,83.0,70.0,29.95,SSW,208,7.0,13.0,64,0.00,,,0.00,,2013-04-23 20:11:00,
2013-04-23 15:22:00,83.0,70.0,29.94,South,184,8.0,13.0,64,0.00,,,0.00,,2013-04-23 20:22:00,
2013-04-23 15:32:00,84.0,71.0,29.93,South,176,7.0,15.0,66,0.00,,,0.00,,2013-04-23 20:32:00,
2013-04-23 15:42:00,84.0,71.0,29.93,South,176,7.0,15.0,66,0.00,,,0.00,,2013-04-23 20:42:00,
2013-04-23 15:52:00,84.0,71.0,29.93,South,180,6.0,13.0,65,0.00,,,0.00,,2013-04-23 20:52:00,
2013-04-23 16:01:00,85.0,73.0,29.92,SSE,168,5.0,14.0,67,0.00,,,0.00,,2013-04-23 21:01:00,
2013-04-23 16:12:00,85.0,73.0,29.92,SSE,168,5.0,14.0,67,0.00,,,0.00,,2013-04-23 21:12:00,
2013-04-23 16:21:00,83.0,71.0,29.92,SSE,164,7.0,14.0,68,0.00,,,0.00,,2013-04-23 21:21:00,
2013-04-23 16:33:00,84.0,70.0,29.92,SSW,196,7.0,15.0,64,0.00,,,0.00,,2013-04-23 21:33:00,
2013-04-23 16:43:00,84.0,70.0,29.92,SSW,196,7.0,15.0,64,0.00,,,0.00,,2013-04-23 21:43:00,
2013-04-23 16:52:00,84.0,72.0,29.91,SSE,152,7.0,12.0,68,0.00,,,0.00,,2013-04-23 21:52:00,
2013-04-23 17:03:00,83.0,72.0,29.91,South,174,8.0,14.0,70,0.00,,,0.00,,2013-04-23 22:03:00,
2013-04-23 17:12:00,83.0,72.0,29.91,South,174,8.0,14.0,70,0.00,,,0.00,,2013-04-23 22:12:00,
2013-04-23 17:22:00,83.0,73.0,29.91,SSE,155,7.0,15.0,71,0.00,,,0.00,,2013-04-23 22:22:00,
2013-04-23 17:33:00,83.0,72.0,29.91,South,184,7.0,13.0,69,0.00,,,0.00,,2013-04-23 22:33:00,
2013-04-23 17:42:00,83.0,72.0,29.91,South,184,7.0,13.0,69,0.00,,,0.00,,2013-04-23 22:42:00,
2013-04-23 17:52:00,83.0,71.0,29.91,SSW,211,8.0,12.0,67,0.00,,,0.00,,2013-04-23 22:52:00,
2013-04-23 18:03:00,82.0,71.0,29.91,South,173,6.0,13.0,70,0.00,,,0.00,,2013-04-23 23:03:00,
2013-04-23 18:12:00,82.0,71.0,29.91,South,173,6.0,13.0,70,0.00,,,0.00,,2013-04-23 23:12:00,
2013-04-23 18:22:00,82.0,72.0,29.91,South,176,7.0,14.0,71,0.00,,,0.00,,2013-04-23 23:22:00,
2013-04-23 18:32:00,81.0,71.0,29.91,South,178,6.0,13.0,71,0.00,,,0.00,,2013-04-23 23:32:00,
2013-04-23 18:42:00,81.0,71.0,29.91,South,178,6.0,13.0,71,0.00,,,0.00,,2013-04-23 23:42:00,
2013-04-23 18:52:00,80.0,71.0,29.91,South,171,6.0,11.0,75,0.00,,,0.00,,2013-04-23 23:52:00,
2013-04-23 19:01:00,79.0,71.0,29.92,South,178,5.0,9.0,77,0.00,,,0.00,,2013-04-24 00:01:00,
2013-04-23 19:11:00,79.0,71.0,29.92,South,178,5.0,9.0,77,0.00,,,0.00,,2013-04-24 00:11:00,
2013-04-23 19:22:00,79.0,72.0,29.92,South,182,3.0,7.0,79,0.00,,,0.00,,2013-04-24 00:22:00,
2013-04-23 19:32:00,78.0,72.0,29.92,South,184,1.0,6.0,81,0.00,,,0.00,,2013-04-24 00:32:00,
2013-04-23 19:41:00,78.0,72.0,29.92,South,184,1.0,6.0,81,0.00,,,0.00,,2013-04-24 00:41:00,
2013-04-23 19:52:00,78.0,72.0,29.92,South,178,3.0,7.0,82,0.00,,,0.00,,2013-04-24 00:52:00,
2013-04-23 20:01:00,77.0,71.0,29.92,South,179,2.0,6.0,83,0.00,,,0.00,,2013-04-24 01:01:00,
2013-04-23 20:11:00,77.0,71.0,29.92,South,179,2.0,6.0,83,0.00,,,0.00,,2013-04-24 01:11:00,
2013-04-23 20:21:00,77.0,72.0,29.93,South,172,4.0,8.0,84,0.00,,,0.00,,2013-04-24 01:21:00,
2013-04-23 20:32:00,77.0,72.0,29.93,SSE,159,5.0,8.0,85,0.00,,,0.00,,2013-04-24 01:32:00,
2013-04-23 20:42:00,77.0,72.0,29.93,SSE,159,5.0,8.0,85,0.00,,,0.00,,2013-04-24 01:42:00,
2013-04-23 20:52:00,76.0,72.0,29.94,South,171,4.0,10.0,86,0.00,,,0.00,,2013-04-24 01:52:00,
2013-04-23 21:02:00,76.0,72.0,29.95,South,171,5.0,8.0,86,0.00,,,0.00,,2013-04-24 02:02:00,
2013-04-23 21:28:00,76.0,72.0,29.95,South,171,1.0,7.0,86,0.00,,,0.00,,2013-04-24 02:28:00,
2013-04-23 21:37:00,76.0,72.0,29.96,South,169,3.0,6.0,87,0.00,,,0.00,,2013-04-24 02:37:00,
2013-04-23 21:46:00,76.0,72.0,29.96,South,169,3.0,6.0,87,0.00,,,0.00,,2013-04-24 02:46:00,
2013-04-23 21:59:00,76.0,72.0,29.96,South,172,2.0,7.0,87,0.00,,,0.00,,2013-04-24 02:59:00,
2013-04-23 22:07:00,75.0,71.0,29.96,South,171,3.0,6.0,87,0.00,,,0.00,,2013-04-24 03:07:00,
2013-04-23 22:15:00,75.0,71.0,29.96,South,171,3.0,6.0,87,0.00,,,0.00,,2013-04-24 03:15:00,
2013-04-23 22:28:00,76.0,72.0,29.96,SSE,155,3.0,8.0,87,0.00,,,0.00,,2013-04-24 03:28:00,
2013-04-23 22:39:00,75.0,71.0,29.97,SSE,165,3.0,9.0,87,0.00,,,0.00,,2013-04-24 03:39:00,
2013-04-23 22:49:00,75.0,71.0,29.97,SSE,165,3.0,9.0,87,0.00,,,0.00,,2013-04-24 03:49:00,
2013-04-23 23:01:00,75.0,71.0,29.97,South,179,5.0,9.0,86,0.00,,,0.00,,2013-04-24 04:01:00,
2013-04-23 23:03:00,75.0,71.0,29.97,South,174,5.0,11.0,86,0.00,,,0.00,,2013-04-24 04:03:00,
2013-04-23 23:12:00,75.0,71.0,29.97,South,174,5.0,11.0,86,0.00,,,0.00,,2013-04-24 04:12:00,
2013-04-23 23:23:00,75.0,71.0,29.97,South,171,1.0,5.0,86,0.00,,,0.00,,2013-04-24 04:23:00,
2013-04-23 23:33:00,75.0,71.0,29.97,South,171,3.0,8.0,86,0.00,,,0.00,,2013-04-24 04:33:00,
2013-04-23 23:43:00,75.0,71.0,29.97,South,171,3.0,8.0,86,0.00,,,0.00,,2013-04-24 04:43:00,
2013-04-23 23:53:00,75.0,71.0,29.97,South,177,3.0,9.0,86,0.00,,,0.00,,2013-04-24 04:53:00,